Theta_e
313 314 315 315 313 313 312 312 312 311 311 310 310 309 309 309 309 309 309 310 310 311 312 312 313 312 312 312 311 310 311 307 306 305 304 307 312 316 313 314 315 316 317 315 314 309 307 308 308 311 311 310 309 308 310 309 310 307 301 300 298 299 299 303 301 303 305 303 305 305 306 306 311 326 326 324 317 320 325 328 334 338 336 340 344 344 345 345
313 313 314 314 314 313 313 312 312 311 311 311 310 310 309 309 309 309 310 310 310 311 312 312 313 313 312 312 311 311 308 307 304 303 304 312 312 313 315 317 317 317 318 312 309 307 306 306 307 308 308 305 311 306 310 305 310 303 301 301 298 301 303 305 304 305 303 304 305 306 306 306 312 325 326 320 315 321 326 330 334 334 338 341 342 342 342 343
312 313 313 313 314 313 312 312 312 312 311 311 310 310 309 309 309 310 309 310 310 311 312 312 312 311 312 312 311 309 308 303 303 301 305 319 315 316 318 320 320 321 318 310 308 308 307 308 308 306 307 305 306 304 307 306 306 305 303 299 301 305 304 304 305 304 305 305 304 305 306 306 308 313 328 321 321 325 322 326 330 332 332 335 339 340 340 342
312 312 312 312 312 313 313 312 312 312 311 311 310 310 309 309 309 309 309 309 311 311 312 311 311 311 312 311 310 310 305 302 299 306 317 316 314 315 316 319 321 322 322 316 311 308 309 310 308 306 304 303 305 307 303 307 303 305 303 301 303 305 303 304 305 305 305 306 305 305 306 306 308 309 308 319 319 321 323 330 331 330 333 335 337 338 340 340
311 311 311 312 312 312 312 312 312 311 311 311 310 310 309 309 309 309 309 310 311 311 311 311 310 311 311 311 309 309 303 293 297 311 315 315 314 314 316 319 325 324 322 318 311 309 309 308 306 305 303 300 304 304 304 307 307 306 303 305 305 306 303 305 306 306 306 307 305 306 305 305 309 309 310 314 318 317 324 332 332 337 339 336 336 337 339 339
310 310 310 311 311 311 313 313 312 311 311 311 311 310 310 310 309 309 310 310 310 310 310 310 310 311 311 310 310 306 300 289 304 308 314 313 313 313 315 320 329 325 321 313 308 308 307 307 305 301 301 301 302 300 304 306 307 301 305 305 306 307 303 307 307 306 306 306 305 305 307 308 307 307 310 315 322 326 329 336 336 338 340 339 339 339 339 340
309 309 310 310 310 311 311 312 312 311 311 311 311 310 310 309 309 309 310 309 309 309 308 309 310 311 310 310 307 304 298 300 303 309 312 312 312 313 313 322 332 325 318 309 306 305 306 305 304 302 301 300 302 302 304 304 307 304 301 304 305 307 305 307 307 307 307 306 305 308 309 306 306 304 313 317 325 335 335 337 337 339 340 339 338 339 338 338
308 309 309 309 310 310 310 311 312 312 312 311 311 310 310 309 309 310 309 309 309 309 309 309 310 310 310 306 302 298 299 297 305 310 310 310 309 309 310 317 324 322 313 307 305 304 305 304 302 304 301 299 301 301 304 303 305 301 300 305 305 306 306 307 307 307 307 307 308 308 305 305 309 312 321 320 328 335 335 337 337 338 339 339 338 338 338 337
307 308 308 308 309 309 310 310 310 311 312 311 311 310 309 309 310 309 309 309 309 309 309 309 309 310 310 306 299 296 296 304 308 309 308 307 308 307 307 306 313 317 312 308 306 305 305 304 304 305 299 300 304 301 304 301 299 303 302 304 305 304 306 306 306 306 306 307 308 305 305 308 317 325 320 324 331 335 337 336 337 337 337 337 337 338 337 337
307 307 307 307 308 308 309 309 310 310 311 311 311 310 309 309 309 309 309 309 309 309 309 309 310 309 306 302 299 292 300 304 308 309 307 308 308 306 305 305 307 314 310 307 305 304 304 305 304 306 305 303 304 301 304 302 301 305 303 304 304 304 305 307 305 306 307 307 307 304 305 306 324 322 317 331 334 336 335 334 337 337 336 336 336 338 339 338
307 307 307 307 307 307 308 309 309 310 310 311 310 310 310 309 309 309 309 309 309 308 308 309 309 308 303 302 294 292 305 305 308 309 308 308 306 305 304 304 304 307 310 307 304 305 307 307 307 307 304 301 303 301 303 303 305 304 305 304 304 304 305 306 306 306 307 305 307 306 305 309 322 321 320 330 336 336 333 334 334 334 334 335 337 338 340 340
306 307 307 307 307 307 307 308 309 309 309 310 310 310 310 309 309 309 308 308 309 307 307 308 308 307 304 299 295 297 308 306 309 309 308 307 305 305 306 305 305 307 308 305 305 306 308 308 308 305 298 305 299 302 302 306 304 304 303 300 301 303 302 305 304 305 306 305 307 307 304 304 313 314 325 333 335 335 334 333 333 333 334 335 336 336 336 337
305 306 306 306 307 306 307 307 308 308 309 310 309 309 310 309 309 309 308 308 308 307 307 307 307 307 303 293 298 305 308 309 309 308 307 308 307 308 307 307 305 306 307 307 304 306 308 307 307 302 304 303 301 298 303 306 303 304 302 300 300 300 299 303 305 305 305 306 307 306 297 302 310 319 328 335 334 335 333 331 332 333 333 335 336 336 337 338
305 305 305 305 306 306 306 306 307 307 307 309 309 309 309 309 309 308 308 308 308 308 307 307 307 304 299 293 301 306 309 310 308 306 306 308 305 304 306 307 307 306 308 307 307 308 306 307 307 306 306 302 301 305 302 302 303 298 300 300 297 297 297 303 304 305 302 306 306 307 299 302 311 322 331 333 335 332 330 331 332 332 333 334 335 335 335 335
305 305 305 305 305 305 305 306 306 306 307 308 309 309 309 308 309 309 309 308 308 308 308 308 306 301 294 295 304 307 311 309 304 304 307 305 304 303 303 305 304 306 308 308 307 307 308 306 305 302 300 305 303 300 299 299 299 299 296 293 297 296 299 302 305 304 300 305 307 305 299 304 316 325 331 334 336 334 330 331 331 332 333 333 333 333 333 335
305 305 305 305 305 305 305 305 305 305 306 307 308 308 309 309 309 308 308 307 308 307 307 303 301 299 294 290 298 307 303 300 301 306 307 306 305 302 303 303 304 305 307 306 309 308 308 306 301 302 301 302 300 298 297 296 296 298 296 295 294 296 298 299 302 305 305 305 305 305 300 307 314 322 331 334 334 334 329 330 331 331 332 333 331 331 332 333
305 305 305 305 304 305 305 305 305 305 305 307 307 307 308 308 308 308 307 307 307 307 305 298 301 301 289 301 304 298 298 301 304 303 304 307 306 305 302 302 301 303 305 306 306 306 306 303 303 302 303 299 299 298 294 293 293 294 297 295 297 295 297 297 301 304 305 304 301 305 303 305 313 323 328 333 333 333 329 328 330 325 320 322 327 328 328 329
305 305 305 305 304 304 304 305 305 305 305 306 306 306 305 307 308 307 307 306 306 305 302 304 301 297 293 301 293 297 302 300 300 303 305 307 307 305 302 300 303 302 303 301 304 301 304 300 302 295 298 298 298 296 292 289 293 293 294 295 296 297 298 298 297 301 303 303 302 303 303 307 312 321 325 329 330 330 326 325 321 317 318 318 319 320 322 324
305 305 305 304 304 304 304 304 305 304 304 305 306 306 307 307 307 306 301 301 298 294 289 291 293 283 287 293 297 298 299 301 303 302 301 304 305 306 304 304 304 301 298 298 298 300 302 300 300 296 292 294 295 296 295 296 297 296 296 296 297 295 296 296 300 303 303 301 301 302 300 305 312 317 322 327 328 322 317 317 316 317 320 321 321 321 323 327
305 305 305 304 304 304 304 304 304 304 304 304 304 304 304 299 297 295 299 299 295 295 295 294 296 295 295 296 295 301 303 303 298 301 304 305 303 302 300 301 301 301 298 294 296 298 301 294 292 291 294 295 297 298 298 298 299 299 298 297 297 296 297 300 301 302 304 301 301 302 302 305 309 314 321 324 323 317 317 313 315 314 316 320 321 322 324 328
305 305 305 304 304 304 304 304 304 304 303 304 302 298 291 292 288 286 294 295 298 298 296 296 296 296 294 297 299 298 295 297 300 300 303 308 304 300 296 299 298 295 297 298 296 300 299 293 293 295 297 298 297 298 299 298 299 298 297 296 296 297 296 299 300 301 303 301 300 303 302 304 307 312 320 323 317 314 317 318 316 317 318 320 323 322 325 324
305 305 305 304 304 304 303 303 303 303 303 305 301 295 296 298 301 300 295 288 295 298 297 297 298 296 299 298 300 300 298 294 295 298 304 305 301 295 296 296 295 293 297 297 297 295 293 291 295 298 299 299 299 298 299 298 297 298 296 296 296 296 299 300 300 301 302 301 300 302 301 303 307 312 320 322 318 318 322 323 320 317 317 321 322 323 323 324
305 305 304 304 304 303 303 303 303 303 303 301 297 297 296 301 305 305 302 294 291 297 296 296 294 295 295 300 301 301 293 291 291 296 299 303 298 296 296 294 294 296 296 296 292 292 289 292 297 300 299 297 297 298 298 297 298 297 296 295 294 298 296 293 298 300 301 300 300 301 300 304 317 320 322 322 321 320 324 327 325 322 319 320 322 323 323 326
304 304 304 304 303 303 303 302 302 302 301 299 298 298 303 305 304 303 296 287 287 293 296 297 296 296 295 294 301 299 293 293 294 294 303 301 296 298 296 295 294 295 294 295 295 293 291 295 300 299 297 297 295 296 296 295 294 297 297 296 296 297 297 297 297 300 301 301 302 301 300 304 312 313 314 318 322 323 325 327 326 326 325 324 325 326 326 325
304 304 304 303 303 303 302 302 299 298 300 299 298 302 305 304 303 302 293 289 290 290 299 297 299 298 299 305 303 295 296 295 296 298 301 301 298 296 294 298 297 293 295 296 296 294 294 298 300 296 296 296 295 294 295 296 293 295 297 298 298 299 297 297 299 298 297 296 300 300 294 297 306 310 313 315 318 319 324 323 324 325 325 324 324 325 328 329
304 304 303 303 302 301 301 296 298 300 298 295 298 304 306 305 304 302 294 283 279 288 296 288 301 293 305 297 299 296 298 290 297 299 302 302 304 297 296 294 297 292 295 295 295 295 296 299 297 295 295 294 294 294 296 297 294 294 294 299 299 299 298 298 297 297 293 292 298 302 294 291 304 305 312 314 316 316 320 320 321 325 325 325 325 326 327 327
303 303 303 302 301 301 298 293 301 299 293 294 300 305 302 302 305 300 286 280 277 291 288 295 294 295 301 298 297 298 283 288 299 300 299 303 298 302 293 293 295 298 299 299 295 292 298 296 296 296 295 294 293 292 296 297 295 293 299 298 298 297 297 297 297 297 296 300 301 301 299 295 296 302 314 316 314 315 316 318 320 323 325 325 326 327 328 327
303 302 302 302 301 300 299 301 298 293 294 299 303 302 302 303 303 301 284 272 274 294 287 290 294 303 299 299 298 293 295 298 290 295 299 302 302 297 295 293 293 294 297 296 287 296 297 294 294 293 294 293 292 295 297 298 295 296 299 299 297 297 297 297 297 297 298 297 293 296 299 293 295 303 313 314 310 313 314 316 318 321 324 326 326 328 329 329
302 302 302 301 301 301 304 301 298 294 300 303 301 301 301 301 299 287 279 271 288 289 303 289 303 296 297 298 294 294 294 296 289 295 299 302 303 299 291 295 296 296 298 297 292 294 297 297 296 296 294 292 295 297 298 297 294 299 300 300 300 299 298 298 297 296 297 293 290 295 297 291 292 304 308 312 309 310 314 316 318 321 322 325 326 329 328 330
303 302 302 301 301 301 301 302 299 300 303 303 300 302 301 298 290 277 273 268 292 282 291 292 292 289 295 290 290 292 291 293 296 296 298 296 298 299 298 301 296 295 294 297 297 297 298 301 301 297 295 296 297 298 298 298 298 300 299 298 297 297 297 298 298 297 295 288 292 296 297 295 290 299 303 305 306 310 313 316 319 320 322 323 325 327 327 328
302 302 301 301 299 299 298 294 297 302 304 305 301 299 297 290 280 274 270 279 289 286 291 290 289 295 290 289 286 291 292 293 293 294 292 297 295 296 296 294 298 294 294 294 294 295 297 298 297 298 300 299 299 296 299 299 299 298 296 295 295 294 297 296 295 296 288 286 293 297 297 297 288 296 303 309 312 313 314 315 318 318 320 323 325 327 328 326
302 302 301 301 302 304 296 293 300 304 303 302 297 293 289 278 280 272 275 291 280 284 287 287 291 291 290 292 289 288 289 292 293 292 290 291 291 290 291 288 292 286 286 289 289 294 293 294 298 298 301 299 296 295 295 297 298 296 295 294 290 288 288 285 291 285 286 286 294 297 298 294 292 299 305 309 311 313 316 316 319 320 321 324 325 327 329 330
302 302 302 302 302 302 300 303 302 301 301 299 295 291 281 276 269 279 281 285 279 288 287 293 290 291 291 289 287 289 293 288 292 292 293 293 291 291 293 293 293 292 284 290 290 289 291 296 296 297 298 300 298 291 291 291 294 294 292 291 288 285 283 281 286 288 289 292 296 295 298 292 297 299 307 309 312 313 315 317 321 322 323 323 325 328 329 327
302 302 303 301 302 302 304 305 302 301 299 297 289 284 280 273 274 286 283 284 283 290 291 290 291 291 290 285 287 290 287 292 290 290 292 290 291 288 290 293 294 292 293 291 288 288 284 286 292 295 291 299 297 296 295 293 294 293 296 294 291 291 287 281 286 282 285 289 293 297 292 290 292 298 308 310 312 313 315 318 322 324 324 324 326 328 326 321
302 303 303 303 304 304 304 303 302 301 298 293 286 282 274 274 280 280 281 284 286 288 286 291 289 289 287 289 289 290 291 287 291 290 290 289 288 289 288 290 293 294 294 288 292 290 289 288 294 298 298 299 296 299 299 296 294 296 297 297 293 291 297 288 290 291 290 290 289 292 290 298 297 308 315 319 319 315 316 319 322 322 324 326 324 323 320 319
302 301 303 301 299 302 304 304 302 300 296 290 283 278 276 279 277 283 281 288 287 284 285 288 290 286 286 287 289 288 291 288 289 290 289 290 291 290 292 292 292 294 292 289 292 287 290 287 295 297 299 297 298 299 298 299 287 293 295 290 293 300 297 291 289 295 290 290 287 294 294 300 309 310 313 316 315 316 316 319 320 320 322 323 321 320 318 319
299 301 296 298 299 302 303 304 302 299 295 289 282 276 281 282 285 284 287 285 285 286 285 281 284 285 284 283 284 286 288 291 289 289 286 291 288 291 290 292 295 294 297 296 291 296 288 289 295 294 293 298 301 300 300 299 299 296 290 294 299 301 299 294 286 288 287 285 286 294 291 295 295 293 310 312 312 314 315 317 318 319 322 320 319 318 318 319
298 298 297 297 300 304 302 302 300 298 292 286 279 280 285 281 288 286 289 288 287 287 284 283 285 289 285 284 283 286 288 287 286 289 286 289 286 295 291 291 294 294 296 298 293 293 295 286 291 295 295 297 300 299 297 299 301 296 294 301 293 287 287 294 290 283 282 282 286 292 294 294 297 296 304 307 308 311 314 317 317 317 319 319 318 318 318 319
299 296 291 297 303 304 302 302 300 295 287 282 281 279 284 285 289 287 290 289 288 285 283 284 284 289 288 284 286 288 288 285 288 287 285 288 286 292 292 293 291 295 296 297 294 295 296 286 288 295 295 297 298 296 288 292 298 299 300 296 299 296 292 289 289 293 291 284 284 287 292 289 300 305 306 306 311 312 314 315 315 316 318 319 318 317 317 316
295 291 290 301 304 305 303 302 296 294 286 279 282 282 287 283 287 291 292 290 286 285 284 284 286 285 289 288 288 285 288 289 287 288 288 289 289 293 291 295 292 293 295 297 294 297 291 296 283 291 296 296 289 294 292 293 291 292 293 293 294 295 298 296 296 292 290 286 286 286 287 293 300 306 307 309 312 314 315 315 316 317 318 320 318 316 316 316
298 292 292 302 303 304 302 297 291 285 283 286 287 285 287 285 288 289 291 292 290 293 287 286 286 286 288 287 287 290 287 289 288 287 289 288 290 284 294 293 294 292 295 294 294 295 290 291 286 289 290 290 292 297 297 296 296 294 293 292 294 292 290 287 285 295 293 291 286 286 285 297 304 309 308 308 315 316 318 317 317 316 318 318 316 316 315 314
293 286 289 301 304 302 296 286 286 289 286 284 284 286 285 291 288 288 290 291 291 288 293 288 289 289 290 289 290 290 289 288 289 288 289 287 291 291 293 296 295 296 293 289 292 296 297 295 292 286 289 291 294 297 300 300 299 297 296 294 296 296 295 290 284 289 293 294 296 295 288 292 310 310 309 309 316 318 319 319 316 317 318 317 315 314 315 316
291 286 298 301 304 300 292 285 288 286 286 287 289 288 290 288 287 289 287 289 287 291 289 288 288 289 292 291 290 290 291 288 289 288 290 290 291 293 295 295 296 295 295 293 295 296 296 291 288 289 293 295 297 299 299 300 299 296 296 297 296 293 294 293 292 296 291 291 291 291 287 294 307 317 318 319 319 319 320 320 318 317 315 315 314 314 315 315
291 291 294 303 303 299 290 281 282 285 287 289 288 287 289 288 287 287 287 288 288 288 286 286 289 292 290 294 293 289 293 285 290 290 289 292 291 295 296 295 296 294 294 294 292 297 289 292 291 286 286 288 290 293 294 297 297 295 294 296 297 297 297 297 297 298 290 292 293 290 285 292 309 314 316 316 316 316 317 317 318 314 314 313 313 313 314 314
292 294 294 297 300 297 286 288 286 285 285 286 285 285 287 288 290 290 289 288 291 290 288 287 290 292 292 294 292 294 294 292 287 293 294 292 294 295 295 296 296 295 296 298 299 298 292 291 290 284 280 278 278 280 283 287 291 295 296 295 296 296 296 294 289 292 287 292 293 290 290 303 310 311 311 314 313 315 316 316 316 315 314 312 312 313 312 312
290 284 289 292 295 294 292 293 290 287 285 286 285 287 288 285 289 292 292 290 292 291 291 291 293 294 292 292 291 288 292 295 292 289 291 292 294 293 295 296 295 296 298 302 300 298 293 295 293 291 288 285 288 290 294 295 293 290 293 294 295 296 297 297 295 290 288 291 291 294 295 302 306 307 309 310 312 313 313 314 312 311 312 313 312 312 312 312
293 286 286 284 290 290 289 291 289 288 285 288 283 288 285 287 289 289 293 287 292 291 292 292 291 291 291 292 291 291 293 292 295 293 293 293 296 294 296 296 296 297 301 298 301 297 294 290 292 294 293 292 293 293 295 294 292 293 293 293 295 295 296 295 290 289 295 292 287 295 297 298 303 307 309 310 311 313 313 312 311 311 311 311 311 311 311 313
285 289 289 291 285 284 286 287 289 288 289 289 286 289 286 286 287 285 290 292 292 293 289 293 292 292 293 291 293 289 290 292 293 290 294 295 295 294 293 295 294 298 298 296 300 296 293 287 293 293 293 295 294 294 295 294 294 294 294 294 294 295 295 293 294 296 296 290 289 297 299 298 302 308 311 312 313 313 313 312 311 312 311 311 310 310 311 311
292 290 289 293 286 289 288 290 290 289 288 289 287 288 286 287 286 288 287 287 289 290 292 285 291 293 292 292 293 290 294 288 288 298 296 296 295 292 291 292 295 297 296 296 297 298 294 290 293 294 293 293 293 294 295 294 294 294 294 295 296 295 295 295 296 297 296 296 297 299 300 299 302 304 311 314 316 315 314 313 312 310 309 309 309 309 309 309
287 287 286 291 290 287 288 289 289 289 287 290 285 289 288 288 287 289 290 288 285 288 292 289 291 294 294 292 292 291 293 294 295 291 299 299 297 298 292 293 292 296 296 295 295 298 293 288 293 293 291 291 295 296 296 295 294 292 293 294 295 295 295 296 297 297 298 298 298 298 299 298 309 312 311 317 315 315 312 310 310 310 309 308 307 307 308 309
293 294 292 285 285 289 291 290 288 288 286 288 286 289 290 289 288 291 290 293 290 288 291 291 294 295 295 295 293 293 296 297 297 299 301 301 295 300 296 297 297 293 295 296 296 297 296 291 295 294 287 289 294 293 295 296 296 294 293 294 294 295 293 295 293 297 296 295 297 298 297 297 309 315 315 315 313 310 309 309 309 309 310 308 307 307 307 308
295 297 296 289 284 290 288 292 291 289 285 289 290 290 289 290 292 292 287 293 294 295 295 294 295 295 296 296 295 297 300 301 302 303 303 304 303 304 303 302 301 295 294 296 297 294 293 293 289 289 286 287 293 295 294 294 294 290 290 295 296 296 297 297 298 299 299 300 295 292 295 301 309 312 312 311 310 310 310 309 309 309 310 310 309 308 308 309
Wind_Speed
14 14 13 13 13 14 13 11 11 10 10 11 12 11 11 12 13 13 13 14 14 13 15 15 14 14 15 15 15 17 15 15 15 13 12 12 7 10 7 7 9 7 8 9 7 6 8 9 11 9 9 8 8 7 8 9 6 7 9 8 10 9 10 6 7 7 5 6 7 3 4 5 2 2 2 5 9 9 11 9 5 5 3 7 16 21 20 19
15 14 14 14 13 13 13 14 12 10 10 10 11 12 11 11 12 13 13 13 14 13 14 14 14 14 15 16 16 13 16 14 16 15 18 6 4 7 11 12 11 11 9 9 9 9 8 11 11 12 10 9 7 8 10 8 9 9 8 9 10 9 2 1 3 3 5 3 1 2 2 5 4 6 4 7 10 12 13 11 10 10 11 14 17 20 20 20
14 14 14 14 14 13 14 13 13 13 12 10 10 11 10 11 12 13 13 13 14 14 14 14 13 13 14 16 13 14 16 16 13 16 2 11 1 9 12 13 13 11 11 10 9 9 9 9 10 12 10 9 8 9 11 8 11 11 8 10 10 4 3 3 2 3 4 4 3 3 2 4 3 3 2 7 10 12 14 12 13 12 16 17 18 19 20 19
15 15 14 14 14 14 13 13 13 14 12 11 10 10 11 11 11 12 13 13 13 14 13 14 13 13 14 15 14 15 14 14 11 7 9 7 7 9 10 10 11 12 13 13 8 9 9 6 9 13 10 11 9 9 12 9 10 9 11 9 6 3 6 6 6 4 3 4 4 4 4 7 2 4 5 6 9 12 12 13 15 17 20 20 20 20 20 19
16 16 15 15 14 13 14 13 14 14 14 12 10 9 10 11 11 11 12 13 13 12 12 13 13 13 13 14 15 12 13 9 4 7 8 7 8 13 13 12 10 12 14 12 10 9 9 10 10 12 10 10 10 10 11 12 11 5 12 11 4 1 6 3 5 4 3 1 5 5 7 4 4 8 9 8 11 10 11 12 10 12 16 20 22 22 20 20
17 16 16 16 16 15 14 13 14 14 14 13 13 10 10 10 11 11 11 12 12 13 12 12 13 13 13 14 13 9 7 4 3 5 4 8 10 13 16 14 9 14 14 13 12 10 12 12 12 12 10 11 12 13 12 12 13 9 10 13 6 4 4 5 5 3 2 4 5 6 4 6 8 8 6 10 13 1 6 12 8 14 17 18 17 19 20 20
16 16 16 16 16 16 16 15 13 14 14 14 13 12 11 10 10 10 10 11 11 12 13 12 12 13 13 16 12 9 9 10 4 5 2 8 11 13 16 10 10 14 15 15 14 11 14 13 15 13 11 12 12 13 12 13 13 12 8 11 12 7 6 4 3 2 5 6 7 6 7 9 7 9 3 8 10 3 5 11 8 14 16 18 20 18 18 18
15 15 16 16 16 16 16 15 15 13 13 14 13 13 12 11 9 10 10 10 11 12 12 12 11 11 11 11 9 6 8 10 2 7 3 8 9 13 13 4 2 12 15 17 16 15 14 16 16 12 12 12 9 14 10 12 13 13 13 5 6 9 9 9 7 6 6 7 8 8 9 9 7 8 2 9 8 4 7 11 13 15 16 17 17 17 17 17
15 15 15 15 16 16 15 15 16 15 13 14 14 13 12 11 10 9 9 9 10 11 12 12 11 9 8 9 8 10 10 8 1 2 4 8 12 12 10 5 4 9 13 15 17 15 14 14 15 13 9 13 7 15 11 12 11 15 14 9 7 6 6 8 8 9 9 6 5 8 10 7 5 3 9 7 5 5 8 11 17 17 17 18 18 17 17 16
16 16 16 15 14 15 15 15 15 15 14 14 13 13 13 12 11 9 9 9 9 9 10 11 11 9 8 7 7 9 0 3 2 1 3 10 13 14 6 4 6 8 11 14 15 17 16 11 15 13 8 11 7 12 11 15 2 10 15 12 9 8 7 7 8 8 8 8 6 9 9 7 3 6 7 6 7 7 10 12 13 17 18 17 15 16 16 17
16 16 16 15 15 14 14 15 15 15 14 14 13 13 13 12 11 9 9 9 8 8 9 10 10 9 9 4 8 10 6 1 2 2 9 12 13 11 9 8 6 7 10 11 14 17 15 11 12 5 5 7 8 11 13 11 7 3 10 13 12 10 9 8 8 9 6 8 10 10 10 5 6 5 4 10 8 8 11 13 12 14 16 16 18 18 16 15
16 16 16 16 16 15 14 14 15 15 15 13 14 13 12 11 13 11 9 8 9 8 7 9 11 7 9 11 13 14 2 5 7 11 13 13 12 12 13 11 8 8 8 10 14 14 14 10 9 9 6 5 9 7 11 9 8 5 5 9 11 11 12 13 13 11 9 8 5 5 7 10 10 9 4 8 9 9 11 13 14 14 15 17 17 16 16 15
16 16 16 16 16 16 15 14 15 15 14 13 12 14 12 11 12 12 11 10 9 8 8 8 8 6 9 13 15 17 20 18 17 17 15 11 13 12 11 9 7 8 9 9 12 13 10 6 11 13 7 5 8 7 2 12 10 9 8 8 8 9 11 13 13 12 11 8 6 6 9 10 12 7 6 9 9 11 12 13 15 14 15 16 17 15 14 13
16 16 16 16 16 16 16 15 15 15 14 14 13 11 12 13 11 12 12 11 10 10 9 8 7 7 10 17 11 11 14 13 16 19 17 13 11 9 8 8 7 8 8 9 10 8 8 6 8 11 2 9 6 7 6 9 9 11 10 8 9 8 9 13 13 13 12 9 9 9 10 10 11 9 9 6 10 13 14 14 16 16 16 16 15 14 13 11
17 16 16 16 16 16 16 16 15 15 15 14 13 12 11 11 12 12 12 12 11 10 9 9 8 7 10 13 11 16 16 15 17 15 11 10 9 8 9 8 9 9 7 9 5 7 7 7 8 9 8 7 4 9 7 8 9 10 10 12 10 9 6 9 10 14 14 10 11 12 11 5 9 9 9 10 12 13 14 15 17 17 16 17 15 14 13 12
16 16 16 16 16 16 16 16 15 15 15 14 13 12 11 12 11 12 11 10 13 11 9 9 7 9 10 14 3 4 5 7 9 11 8 9 9 7 6 11 9 8 7 8 4 5 7 8 11 10 9 7 10 10 9 8 9 12 13 9 12 11 7 8 11 13 17 11 13 14 10 8 7 8 11 10 9 9 11 14 15 16 16 16 14 12 13 12
17 17 17 16 16 16 16 16 15 15 14 13 13 13 11 10 10 11 10 12 9 8 7 7 5 5 8 2 3 8 6 8 4 4 5 6 8 8 7 12 10 10 8 8 8 9 10 10 6 4 8 10 11 11 11 12 11 12 12 9 9 13 10 6 12 11 15 10 12 15 12 2 6 11 11 10 9 10 10 13 11 10 13 11 5 7 7 5
18 17 17 16 17 16 16 16 15 15 13 13 11 13 12 10 10 11 11 9 6 5 5 5 5 6 15 16 13 5 5 0 4 2 3 4 6 8 9 12 10 12 12 12 11 13 12 11 9 11 10 11 14 14 15 15 13 12 12 11 8 10 13 8 8 13 12 14 12 14 14 5 7 10 11 12 8 7 5 10 9 12 15 13 9 8 8 4
17 17 17 17 16 16 16 16 15 14 13 12 13 15 16 15 9 8 8 6 7 5 5 9 10 10 6 5 2 8 6 3 5 6 7 8 7 7 6 5 12 15 13 13 11 16 11 10 9 12 16 16 16 17 14 7 12 13 15 12 10 11 12 11 7 9 14 14 12 14 14 8 9 10 10 10 9 12 14 16 12 11 8 11 12 9 6 4
17 17 16 16 16 16 16 16 15 14 12 10 8 7 7 6 5 5 8 11 14 14 11 4 15 13 13 8 4 5 5 5 7 8 6 6 6 9 9 11 14 13 13 12 15 16 12 14 16 18 14 16 16 16 16 2 6 9 14 13 10 10 10 12 7 8 10 11 14 12 14 10 10 10 10 11 14 13 12 14 16 9 6 4 12 11 5 4
17 16 16 15 15 15 15 14 14 13 9 9 9 8 8 9 8 9 6 9 13 15 16 15 15 17 15 8 1 5 4 5 6 3 7 7 9 12 12 14 15 13 13 14 14 11 13 15 16 16 15 16 18 16 12 4 8 10 11 12 10 11 8 12 10 8 8 10 12 12 14 10 10 9 10 10 14 8 11 13 13 14 13 9 11 13 11 8
16 15 15 15 14 14 13 13 12 10 5 7 8 8 9 9 5 4 4 9 13 17 19 18 15 17 15 18 13 2 5 7 6 10 7 10 11 15 15 16 17 14 14 14 13 13 15 18 14 16 14 13 15 18 12 9 9 10 9 10 10 11 5 9 8 8 7 10 8 13 11 11 9 7 9 9 12 9 7 8 15 17 12 9 10 12 13 10
17 15 14 13 13 13 12 10 7 3 7 6 8 11 11 8 2 3 5 9 14 14 17 18 18 19 19 15 12 9 10 11 7 10 11 11 12 15 16 16 16 14 16 17 16 14 13 14 15 15 14 14 16 16 14 10 7 7 10 10 12 10 11 9 9 11 6 9 7 13 13 8 10 9 9 9 12 8 7 6 12 13 16 11 14 16 13 12
17 15 13 12 12 12 10 6 5 9 9 11 12 12 8 2 2 2 6 7 9 12 15 18 20 17 19 15 9 14 13 10 11 9 10 12 12 12 11 20 18 15 16 19 18 14 13 9 14 13 14 16 16 16 15 12 10 10 10 10 11 12 12 5 12 10 8 5 3 13 11 8 8 9 7 7 10 10 8 9 8 10 12 10 10 11 9 7
17 15 13 11 11 10 6 5 8 9 9 10 12 11 6 4 4 4 6 6 9 13 12 15 12 14 13 9 6 12 13 11 12 8 10 13 14 11 11 13 12 15 15 19 16 13 14 6 15 16 16 17 16 15 17 14 11 10 11 10 10 9 12 7 12 13 9 9 10 14 10 11 11 12 10 9 9 10 11 11 10 12 13 13 12 13 10 8
17 15 12 11 9 5 2 7 6 4 6 8 8 6 5 4 3 7 5 4 8 5 10 8 11 9 10 12 10 9 7 12 14 11 6 13 9 11 8 13 11 16 17 19 15 9 9 11 14 16 16 17 17 15 18 16 12 10 11 8 4 9 11 9 8 13 11 11 13 14 13 8 11 13 11 10 12 12 10 11 11 11 12 13 12 12 12 11
16 15 12 10 7 1 5 5 3 5 8 4 5 1 2 5 5 11 3 5 8 8 10 7 11 8 8 14 15 12 8 10 13 14 13 11 12 10 11 12 11 8 12 9 8 11 9 16 15 15 17 16 16 15 17 19 12 10 10 13 5 5 8 9 8 11 9 5 6 11 11 9 10 12 14 14 14 13 11 11 12 11 12 14 14 13 13 13
16 14 11 8 4 5 7 8 8 8 8 3 1 3 1 3 5 3 3 5 4 12 8 5 3 7 8 15 18 15 6 15 13 15 15 11 11 10 10 16 15 14 15 13 14 6 13 14 17 17 16 14 15 14 15 18 13 5 12 12 9 6 5 5 7 9 5 2 9 11 14 10 8 11 15 15 14 14 14 12 12 13 14 14 15 14 15 15
14 14 11 6 2 5 7 7 8 9 4 2 5 6 3 4 5 4 4 6 4 4 6 12 7 10 6 15 17 17 3 11 5 16 15 12 14 4 11 11 16 13 13 15 10 8 9 13 15 15 13 13 12 14 14 19 15 6 10 9 7 6 4 8 8 8 6 7 11 14 14 12 11 11 11 14 15 16 15 15 14 14 15 15 15 15 16 14
12 12 11 4 5 6 5 5 9 8 4 3 5 6 6 4 3 4 3 6 4 4 4 6 10 10 13 15 14 16 6 7 2 17 15 12 14 5 7 5 14 14 13 13 13 6 9 11 13 12 14 10 12 13 14 17 14 9 11 10 8 7 7 5 6 6 7 10 14 13 16 14 11 13 14 14 15 15 14 12 12 14 15 16 15 15 15 13
12 10 11 4 5 3 3 5 3 3 2 1 1 4 3 4 5 5 8 2 4 5 4 9 9 13 15 16 13 15 8 6 12 17 14 13 13 12 9 9 9 10 10 11 13 7 10 13 12 11 12 8 11 12 15 16 15 11 11 12 9 9 6 6 7 6 7 11 13 16 12 16 13 10 12 15 15 18 17 16 17 17 17 17 15 14 15 14
12 10 10 8 3 2 4 3 1 3 1 2 3 2 4 5 1 4 5 5 3 2 6 10 9 11 13 12 11 15 10 9 13 17 16 15 14 15 16 14 15 15 14 15 14 11 12 13 11 13 10 13 15 12 13 16 15 14 13 14 13 10 6 9 10 10 13 10 10 14 11 11 16 5 8 13 16 18 17 15 17 19 19 18 17 15 13 13
12 10 12 8 4 3 5 3 2 3 4 3 2 2 4 4 7 12 9 2 1 4 3 1 11 11 12 11 12 15 9 9 16 16 15 14 13 13 17 14 17 12 14 16 14 12 9 12 15 12 12 13 15 14 14 15 16 17 16 16 15 13 12 11 13 8 8 7 5 6 10 11 6 8 9 13 15 17 18 17 17 19 19 19 17 15 14 12
12 11 7 2 3 3 1 2 2 1 1 4 3 4 4 7 5 6 7 6 3 2 3 1 7 9 12 8 12 14 8 9 18 14 16 14 14 13 15 16 18 15 7 16 14 14 13 13 14 17 12 16 16 13 14 11 16 15 14 15 14 11 10 10 10 12 12 9 9 6 7 7 11 6 8 9 11 13 14 12 10 12 15 14 14 14 16 15
13 10 4 2 2 0 3 2 3 3 2 3 4 6 8 8 4 7 3 5 2 4 2 5 6 10 11 6 13 14 3 9 15 16 15 14 13 13 16 13 18 14 10 14 11 8 16 7 12 16 7 18 17 15 13 14 13 14 13 12 14 14 6 9 1 5 10 8 8 11 6 1 4 4 4 4 5 10 13 13 12 13 12 13 13 14 14 13
10 2 2 1 1 3 2 3 4 5 3 4 6 7 6 1 3 5 5 6 2 5 7 4 7 10 9 8 11 15 1 5 15 12 11 13 12 12 14 12 14 16 14 12 12 12 12 8 18 15 8 18 16 15 13 14 12 14 14 16 15 11 9 2 2 5 4 3 8 6 9 5 6 5 5 8 9 11 14 14 14 14 16 15 14 13 14 14
5 3 1 3 4 3 3 3 4 5 2 4 4 4 3 2 1 7 6 8 4 7 6 5 7 5 10 9 11 14 9 7 14 11 9 13 11 13 16 13 14 15 13 10 12 8 11 9 17 13 16 15 16 12 12 16 9 10 14 13 10 9 8 7 7 4 5 8 5 11 13 10 10 6 8 11 12 13 14 14 16 17 18 15 13 14 14 16
5 1 2 4 4 2 3 4 5 4 3 3 4 4 1 3 2 6 6 7 4 6 5 5 3 4 10 10 13 14 11 9 15 11 9 12 6 12 14 11 15 15 15 9 8 7 9 10 13 14 13 15 14 13 13 13 17 10 12 9 12 8 9 9 5 10 11 10 6 9 12 11 13 8 11 13 15 15 15 15 17 19 19 16 15 15 16 17
3 3 1 6 4 2 3 6 5 5 4 4 2 5 1 1 3 7 5 8 3 6 4 7 4 1 5 9 13 12 12 10 15 9 10 10 7 14 14 10 13 14 16 11 10 9 8 8 10 13 14 15 11 12 13 15 13 8 10 14 12 8 12 10 7 5 7 8 8 9 12 8 11 8 16 18 17 18 17 17 18 21 21 18 15 16 18 17
3 3 3 7 3 4 5 5 4 4 3 4 2 2 1 4 4 6 5 8 3 4 3 5 10 2 4 9 13 10 11 10 13 9 6 9 4 14 15 12 12 17 16 13 9 12 6 7 10 12 15 16 13 13 14 15 15 14 13 14 11 10 6 10 9 11 8 7 8 7 7 8 9 11 14 16 17 18 18 19 18 18 19 18 17 18 18 17
3 3 3 5 2 4 5 4 4 3 3 1 3 3 4 4 5 5 7 6 6 3 4 6 6 3 4 12 9 9 6 11 12 9 6 11 6 8 13 14 13 15 16 16 11 12 7 9 10 13 13 14 12 13 14 16 16 14 13 12 13 13 11 13 13 12 12 8 6 8 8 4 8 10 12 14 17 17 19 21 17 18 19 17 16 17 17 16
4 1 4 4 1 4 4 4 2 2 2 3 4 4 4 6 5 6 6 5 6 3 2 4 4 3 1 7 8 8 8 10 10 8 6 10 8 4 13 17 15 14 13 13 11 15 7 7 10 11 11 11 12 16 15 13 15 15 12 12 13 13 11 11 11 10 9 9 5 6 6 5 5 8 9 12 14 18 18 15 15 14 16 16 16 17 17 18
5 4 2 0 2 5 5 3 1 0 1 3 3 3 3 4 5 6 7 4 5 2 4 2 3 4 3 1 5 6 7 9 10 7 9 11 10 2 16 20 19 17 13 11 14 9 2 8 12 11 10 10 6 9 14 12 14 16 16 15 14 16 16 14 11 6 8 8 6 4 3 3 3 6 3 4 9 10 11 14 15 15 14 14 19 19 19 19
3 2 1 2 2 4 6 2 3 3 3 3 3 6 5 6 6 6 4 5 3 4 3 3 2 2 2 1 3 4 2 8 4 7 7 6 8 7 16 19 23 15 14 11 9 13 8 8 11 12 10 11 8 10 12 13 13 13 14 16 16 15 15 12 10 7 7 14 13 8 8 4 7 5 5 6 10 13 13 14 16 16 15 17 19 18 17 18
1 2 1 1 1 3 4 3 3 3 4 5 5 6 4 4 4 5 6 7 4 4 4 2 3 5 2 2 3 2 2 2 8 2 4 7 6 8 15 18 22 16 14 11 7 12 6 10 12 13 15 16 16 17 18 19 19 12 14 17 17 17 17 14 10 8 9 10 14 10 6 7 7 8 9 9 9 12 12 14 15 15 18 18 18 18 19 18
2 2 1 2 1 2 3 3 4 4 5 5 5 3 4 4 1 3 5 6 5 6 5 6 5 3 1 3 5 0 8 2 0 6 7 7 7 6 12 19 19 15 16 13 12 12 3 10 11 10 11 10 8 7 6 10 11 15 18 19 19 17 17 15 9 9 11 7 10 13 11 8 8 10 12 14 11 14 14 15 16 16 17 16 16 18 18 18
4 2 3 3 1 4 3 2 3 3 3 5 4 5 5 5 5 3 2 3 2 5 5 4 2 0 4 5 7 9 4 6 5 4 4 8 5 7 13 17 18 17 13 11 13 10 5 9 12 9 10 10 10 9 8 14 16 16 15 17 18 18 19 17 13 14 10 7 11 9 14 11 9 11 13 15 14 13 13 14 14 15 17 17 17 17 18 19
1 2 1 2 4 3 3 1 2 4 6 5 5 5 5 6 5 4 1 1 6 4 3 3 3 1 4 4 4 4 3 6 6 4 5 5 8 11 10 13 15 14 14 12 14 10 9 6 13 8 8 6 8 9 11 15 16 17 19 17 18 18 19 19 18 15 12 10 7 8 10 12 11 12 14 16 18 17 15 14 14 15 15 16 17 19 20 20
1 2 3 2 4 4 6 8 8 7 7 5 4 5 6 5 5 3 2 3 4 4 3 2 7 7 4 1 1 6 3 6 4 6 4 5 7 11 10 12 12 15 15 13 14 9 7 7 12 11 8 6 4 4 7 13 15 17 18 19 19 20 21 20 17 15 15 10 11 4 11 13 12 13 12 13 12 11 13 15 16 17 17 18 19 20 19 20
3 4 3 3 6 8 8 5 4 5 6 3 3 2 3 4 6 4 1 2 3 3 0 1 4 6 5 3 2 4 7 7 6 3 5 2 6 4 11 9 9 11 14 13 12 12 9 7 12 13 8 7 4 4 7 11 11 13 16 19 19 19 19 19 16 16 15 12 12 8 6 9 2 4 10 12 12 11 14 17 19 20 19 18 19 21 19 19
4 3 5 6 7 5 4 4 4 4 4 4 5 4 3 2 4 5 6 3 5 3 1 5 8 4 4 4 3 4 5 5 4 5 5 5 2 4 1 6 8 13 16 12 11 10 12 5 7 9 7 8 5 6 8 8 10 14 16 17 18 19 20 18 16 16 15 14 14 9 8 8 6 6 10 13 14 16 18 19 18 18 21 21 21 20 20 20
4 4 4 4 4 5 7 3 4 3 4 2 3 4 4 6 7 6 4 2 3 4 5 4 6 4 5 5 7 7 6 6 6 5 5 2 2 1 2 2 3 11 11 13 10 11 11 8 7 7 8 8 9 5 7 7 8 11 13 16 18 17 14 14 15 16 17 14 13 11 11 5 10 11 13 13 15 16 17 18 18 19 22 22 22 22 20 18
Wind_Direction
321 322 312 291 290 296 294 287 290 295 303 307 307 310 315 316 315 314 316 318 317 324 320 321 327 325 320 326 321 323 326 307 302 288 269 257 287 298 285 288 267 271 283 270 255 229 202 189 191 173 198 190 201 218 170 202 186 199 207 223 226 234 228 201 207 194 41 158 142 123 27 332 312 148 90 185 195 211 159 175 149 142 181 98 117 132 142 145
324 323 318 312 293 284 289 296 291 289 293 300 305 306 311 315 313 312 319 318 314 319 321 322 320 323 328 322 326 336 315 302 293 284 263 260 189 274 268 262 259 254 264 246 223 211 206 190 186 180 192 202 160 209 159 189 191 202 207 222 236 221 240 106 165 203 205 139 46 51 45 329 16 293 127 223 182 180 170 171 168 144 118 123 133 137 144 150
330 326 323 315 305 297 289 291 291 292 287 290 297 305 310 309 312 315 316 316 319 321 320 318 320 325 331 329 339 320 301 300 292 270 182 62 208 271 273 269 256 241 226 228 218 225 219 196 182 188 195 202 177 190 187 174 197 211 231 219 231 281 67 207 163 207 264 346 285 303 29 302 347 291 89 238 187 184 188 168 168 155 142 145 139 146 148 153
333 330 327 320 312 309 299 289 288 286 288 286 291 299 300 304 307 313 315 315 317 318 319 316 320 333 326 328 342 306 306 297 269 127 88 54 359 324 312 286 248 225 218 235 246 236 226 252 193 202 193 220 180 209 190 180 199 193 227 229 236 186 218 195 213 220 225 272 293 294 312 277 162 273 284 231 199 201 198 182 178 168 154 154 153 153 156 157
335 333 332 329 323 313 303 296 287 286 285 288 282 286 299 300 303 310 315 316 315 316 318 318 322 327 330 329 312 302 304 284 103 95 64 26 355 339 333 309 243 209 205 210 223 225 215 209 194 205 209 206 189 196 209 184 208 199 222 232 270 228 240 162 190 187 250 315 281 284 273 312 321 266 245 233 215 200 203 172 189 157 151 156 159 159 158 161
338 336 334 333 329 322 313 301 290 285 284 293 285 281 286 293 298 305 310 313 315 314 317 320 321 328 330 327 298 296 291 249 76 112 19 18 360 348 337 319 219 203 191 201 200 191 199 203 197 197 203 215 193 200 196 206 196 227 213 233 220 229 236 119 187 161 255 252 265 274 317 314 280 279 265 235 222 60 192 155 176 157 159 158 160 159 161 163
339 336 336 335 333 329 322 316 306 292 285 278 280 285 283 286 295 301 304 310 312 312 314 319 321 326 330 298 287 278 258 284 219 96 23 1 355 359 338 326 169 193 187 190 197 190 198 197 201 198 203 212 204 208 195 199 195 230 230 205 215 203 224 144 191 184 236 266 268 289 307 280 284 271 254 228 214 116 186 151 158 151 152 160 164 167 165 164
337 335 334 334 332 330 327 320 313 304 290 280 277 278 280 280 285 291 300 303 310 315 315 316 319 325 330 312 313 258 249 255 314 98 50 354 342 355 342 358 204 186 190 196 191 197 193 202 199 200 214 206 190 203 181 198 194 217 235 184 227 219 224 237 245 246 255 263 267 275 275 269 274 284 295 230 178 161 153 152 155 145 158 165 165 165 164 161
333 331 331 329 329 329 328 324 319 314 305 290 282 277 279 278 279 286 292 298 306 314 317 314 313 323 316 287 292 293 263 252 1 99 359 353 344 339 338 18 304 206 201 201 200 198 198 204 206 206 208 211 188 205 184 197 207 220 227 217 204 204 213 220 231 243 249 258 261 267 257 259 277 283 239 188 165 172 161 162 151 159 163 169 169 163 163 160
330 330 330 327 325 325 325 324 324 318 309 298 286 279 273 274 277 278 285 289 298 310 313 314 314 322 293 293 277 262 316 54 91 222 359 349 337 328 312 343 340 221 212 206 202 203 204 196 209 197 274 240 187 209 186 207 242 193 218 222 219 214 212 197 226 227 236 245 248 256 262 254 202 249 181 160 161 172 163 157 162 167 169 170 168 162 163 161
326 326 325 323 322 322 323 324 323 320 315 309 298 285 285 287 275 273 275 286 293 304 316 314 322 300 282 272 252 243 74 326 54 325 322 331 323 316 315 317 313 247 229 215 213 205 202 218 205 190 236 228 183 210 206 209 219 205 212 220 230 234 235 237 231 242 236 234 232 242 255 259 209 220 245 147 152 170 172 157 169 172 171 170 167 166 163 162
322 321 320 322 320 319 321 319 319 321 322 318 310 292 277 277 276 272 271 277 288 299 313 324 318 286 272 261 246 235 24 305 306 303 309 314 305 301 295 289 269 241 232 214 211 200 205 213 206 194 190 169 205 194 217 201 210 180 182 215 220 223 231 223 229 222 222 235 204 225 255 228 208 214 147 133 150 175 169 162 168 176 172 168 165 167 166 161
316 318 319 318 320 319 318 317 315 318 320 318 315 301 287 281 277 267 267 267 267 283 299 316 309 281 284 267 250 260 271 280 289 293 291 289 289 278 269 261 243 229 236 243 204 203 197 215 210 208 231 226 191 196 108 183 201 219 214 241 208 208 227 214 212 220 217 221 204 199 222 202 194 167 131 143 161 168 167 170 171 175 171 167 169 164 159 144
316 311 314 315 313 317 315 314 313 313 316 315 317 308 293 278 280 280 268 267 283 276 286 296 294 278 266 262 279 277 273 272 279 281 278 280 270 267 243 224 220 217 214 248 220 189 190 197 205 222 174 230 194 97 192 182 191 206 207 221 236 217 228 189 191 192 213 184 206 220 240 195 151 111 106 132 166 172 176 173 174 171 168 168 164 153 142 134
310 312 310 311 311 311 314 314 313 313 314 311 314 313 301 283 275 278 281 284 271 276 282 284 268 270 258 271 271 262 260 265 263 260 262 250 237 249 227 196 197 197 198 213 218 191 187 182 194 205 204 208 323 188 185 190 184 207 197 209 213 231 165 148 183 190 205 168 203 215 240 175 139 136 158 178 182 185 182 176 174 170 174 164 157 153 148 146
306 307 307 306 308 308 309 312 312 310 309 313 310 309 299 286 276 277 286 279 280 286 277 266 256 243 289 288 288 78 227 225 242 234 228 227 227 238 186 181 175 174 184 186 217 180 187 177 199 202 193 176 215 203 194 190 197 203 214 200 200 205 184 167 178 194 207 179 192 214 215 140 160 154 174 188 185 185 189 180 171 172 170 157 153 149 154 147
303 300 303 302 303 304 305 307 309 311 312 312 309 296 288 277 274 272 269 274 272 252 255 257 268 235 260 97 272 263 260 212 257 232 201 221 223 221 194 167 173 167 175 160 185 179 179 197 173 213 232 205 201 205 203 203 196 199 201 221 196 193 199 199 142 191 198 213 186 210 245 319 123 167 178 183 189 182 198 184 154 89 63 57 91 104 90 105
302 300 297 298 296 300 301 302 306 310 313 307 302 302 289 273 266 266 255 243 260 247 239 251 256 268 245 240 260 252 65 306 213 260 208 201 217 216 212 173 166 163 161 158 174 187 176 195 174 204 189 208 198 204 208 203 198 187 183 204 179 207 205 193 173 172 190 201 207 196 225 151 169 167 177 181 173 188 41 12 82 101 105 101 76 66 83 210
307 301 297 294 294 292 296 297 302 307 310 307 287 273 264 256 246 246 247 221 197 188 209 200 199 190 39 134 249 272 260 294 287 250 207 203 202 217 225 231 166 163 169 173 173 190 173 200 186 209 202 197 201 204 207 222 210 192 186 192 189 193 191 211 136 136 188 186 209 195 209 180 176 183 178 169 162 91 88 86 52 32 63 105 130 133 137 173
310 307 302 297 294 292 291 294 294 301 310 296 287 273 256 233 207 212 209 216 225 236 253 256 199 239 294 246 257 339 277 237 241 206 203 178 181 188 194 182 169 185 176 190 162 199 172 198 197 204 200 194 197 203 214 195 259 178 189 197 203 200 187 199 152 150 191 199 206 193 209 188 185 191 179 163 114 94 88 111 107 115 137 142 114 112 109 116
312 311 308 305 299 298 291 291 291 292 308 293 292 273 252 250 244 247 182 218 231 242 250 254 227 232 245 270 88 359 6 184 233 186 194 168 200 173 176 180 175 193 191 184 166 173 189 212 211 202 199 190 193 199 203 195 208 184 189 198 198 205 190 178 170 155 183 216 191 201 202 192 182 186 170 152 129 120 133 131 137 155 165 166 145 134 149 127
313 307 305 304 304 299 300 296 298 302 291 276 277 260 261 263 308 354 311 273 235 232 244 248 247 242 247 255 256 285 278 289 240 216 169 192 182 194 169 190 181 193 177 182 166 174 201 212 204 199 198 193 186 195 187 195 192 197 204 196 208 197 176 143 142 164 169 216 195 181 200 187 176 168 145 131 125 155 172 158 150 153 167 161 135 143 143 152
319 312 306 306 303 304 305 307 305 296 275 254 246 250 253 270 310 318 287 272 276 260 246 234 232 239 243 240 241 228 244 236 230 193 176 202 180 216 169 193 186 188 180 185 181 179 199 212 207 194 194 187 181 187 187 200 212 205 206 202 208 185 188 172 163 170 174 210 204 182 199 160 94 66 90 114 122 158 177 149 157 155 162 168 158 164 164 166
325 317 307 303 307 308 312 320 275 259 249 251 253 248 272 248 244 248 260 259 283 262 231 223 225 227 230 225 207 206 213 230 231 221 164 196 196 202 203 196 185 192 189 189 194 194 199 187 195 177 171 175 177 186 195 203 206 213 222 212 209 186 193 242 161 161 162 198 269 176 201 172 169 150 113 130 141 159 166 151 152 156 148 154 144 160 162 152
329 321 311 304 305 313 323 287 266 256 269 255 250 248 227 208 196 233 253 266 242 256 225 233 216 229 226 209 156 193 208 239 226 225 179 201 190 180 205 192 199 198 190 190 200 206 200 187 164 175 183 187 190 188 197 197 206 198 220 233 222 187 178 96 134 158 178 185 208 189 193 202 178 181 150 147 166 179 180 184 169 158 148 157 163 164 161 144
334 324 317 305 304 337 315 269 265 297 270 263 262 247 216 185 213 244 224 261 276 236 131 215 163 215 168 182 164 197 176 226 210 217 192 202 218 201 173 199 205 193 191 186 200 208 180 164 171 184 185 190 194 199 191 198 207 197 193 224 235 194 192 178 169 182 193 206 180 207 219 193 169 185 157 161 178 170 177 194 178 173 162 167 173 162 163 157
338 330 318 314 310 141 268 272 3 278 270 275 354 51 122 203 181 210 198 227 267 180 173 111 177 111 185 169 168 173 190 210 172 199 205 202 206 213 211 188 187 221 181 173 192 206 182 168 183 191 189 188 194 200 189 197 204 209 161 186 175 171 178 187 201 202 206 134 105 200 224 227 183 192 163 168 178 169 177 189 183 188 176 180 178 166 163 165
340 335 323 315 303 204 282 300 287 267 267 54 357 359 183 247 198 239 237 249 233 115 150 164 264 136 217 154 171 186 49 112 149 181 197 176 220 185 237 192 187 185 169 178 193 142 177 173 185 182 189 192 199 197 181 195 209 176 149 175 182 184 194 192 206 205 218 219 198 193 204 243 225 161 159 171 177 177 178 185 193 191 191 187 182 173 170 172
338 341 335 325 282 243 264 263 276 273 316 104 43 294 20 324 241 193 222 242 117 105 82 108 126 152 161 163 177 202 109 192 227 150 175 177 211 227 208 209 190 182 177 192 186 112 189 186 180 184 189 197 193 194 183 189 205 149 158 166 177 190 202 212 214 218 195 209 221 196 185 216 216 146 167 179 191 184 180 184 192 199 194 193 185 177 173 174
329 339 335 294 264 232 236 250 257 268 287 109 209 307 307 200 195 224 191 249 135 132 186 114 189 163 158 163 181 199 212 164 55 140 165 180 179 249 236 218 188 176 182 196 230 139 178 186 184 194 195 193 190 189 176 186 208 123 192 180 185 196 200 203 237 232 224 223 224 211 184 211 219 176 178 183 198 188 183 182 187 192 195 195 187 180 169 166
317 324 329 284 276 342 329 257 326 283 216 203 8 277 262 193 211 211 213 127 23 71 138 155 144 144 164 168 171 187 195 143 156 157 156 174 171 195 154 161 184 174 180 184 209 143 163 171 183 199 195 197 172 164 183 186 194 168 185 195 179 194 191 208 203 220 226 233 217 216 195 198 232 179 187 183 182 187 182 186 185 187 191 195 188 179 168 171
316 308 313 293 309 280 259 360 357 292 107 85 67 256 195 188 216 227 200 101 218 172 209 156 145 165 173 180 167 173 175 169 161 167 165 174 168 184 182 177 172 166 182 182 186 161 179 180 180 181 205 181 174 179 175 190 186 192 189 193 194 180 186 199 198 201 217 225 213 196 180 203 220 222 169 170 183 185 187 192 186 186 188 190 188 178 168 163
314 304 301 272 260 239 249 297 71 31 69 132 212 214 205 209 207 222 253 328 110 343 93 244 161 161 167 172 168 164 179 169 167 175 168 171 175 187 189 198 183 193 177 176 178 174 170 177 182 171 185 195 189 184 172 187 185 194 196 188 192 189 188 203 200 207 217 189 67 181 190 225 193 212 150 179 188 186 188 197 191 186 183 183 177 169 155 143
306 303 294 347 291 271 299 192 164 225 314 171 235 197 220 214 215 291 231 52 43 307 3 43 154 159 164 181 160 163 161 156 166 171 179 170 183 178 184 200 187 191 205 165 190 177 162 175 189 178 191 183 200 206 180 185 178 197 200 197 201 201 190 195 200 198 203 188 171 170 182 217 210 138 154 160 179 185 188 189 176 179 188 178 164 156 134 131
306 290 283 252 231 201 216 163 182 193 254 239 224 214 196 211 291 348 320 352 34 342 325 325 206 165 166 164 152 176 186 144 181 165 182 173 185 183 180 184 191 194 183 169 181 185 182 183 167 185 177 176 195 202 183 183 183 196 202 204 210 213 183 220 219 234 200 180 163 177 201 217 200 82 106 110 142 189 181 173 162 172 164 136 147 147 134 138
291 12 232 104 76 74 159 174 154 173 245 239 227 213 213 16 320 343 352 318 4 332 317 244 205 166 161 155 158 179 207 199 174 174 182 186 179 185 177 178 181 188 183 183 158 181 166 187 154 168 184 178 191 193 189 193 189 180 199 205 206 210 220 187 115 61 14 150 209 164 197 125 109 167 140 174 170 177 178 168 169 166 157 152 151 144 137 143
333 308 185 48 65 84 114 146 158 179 235 247 266 250 294 339 34 331 335 346 323 307 316 169 172 186 164 152 161 178 154 176 167 185 167 186 181 195 179 178 187 190 200 182 163 199 169 142 155 153 171 175 190 191 190 195 216 168 211 201 200 225 257 208 204 133 221 207 201 180 196 181 177 176 167 168 180 170 172 173 171 170 161 153 152 145 149 153
324 352 82 54 31 56 110 145 184 176 235 247 237 285 1 271 64 343 318 335 319 318 332 349 108 254 160 154 157 169 160 178 167 189 166 185 173 182 178 170 177 194 198 193 182 165 176 138 170 175 167 174 181 177 196 202 221 222 205 177 196 171 210 202 228 201 197 211 208 191 207 207 195 174 168 175 178 174 174 173 172 174 171 162 154 153 151 146
285 239 165 25 4 123 145 174 211 225 229 248 271 251 57 321 341 341 333 323 234 297 338 352 0 26 174 147 150 164 164 182 163 185 163 185 185 175 184 169 168 186 197 178 192 167 183 150 149 175 176 159 174 194 193 193 194 256 218 212 204 219 215 200 211 245 205 213 213 209 199 221 199 179 177 172 179 179 177 177 181 181 180 171 157 155 151 147
312 233 84 12 27 152 159 209 249 248 258 291 344 289 1 306 343 345 318 333 337 326 8 322 338 133 149 123 153 156 179 173 171 166 194 165 189 158 192 179 171 182 188 190 192 172 178 163 156 166 178 163 193 194 198 188 178 193 210 206 188 223 218 235 203 222 216 217 206 207 202 218 200 164 176 173 179 179 180 184 185 185 182 169 157 153 151 147
319 287 74 9 85 154 186 215 242 263 298 90 239 332 335 356 339 310 310 315 300 230 287 314 324 22 113 145 151 150 168 162 175 170 189 157 173 158 191 176 172 170 179 185 199 173 189 176 161 159 176 185 196 188 202 191 191 197 207 203 200 195 195 199 215 200 227 228 212 211 220 171 107 148 185 179 180 181 186 187 180 179 177 155 156 149 144 140
324 56 44 23 186 210 235 253 156 302 302 343 9 351 344 356 302 307 313 306 298 312 228 286 314 324 172 151 133 157 165 160 170 173 181 168 185 200 167 181 176 169 173 181 180 176 196 175 162 170 177 180 196 179 210 201 191 205 204 210 205 203 211 207 214 191 209 226 297 231 223 152 142 180 190 185 176 184 184 177 171 171 164 149 150 142 140 142
28 62 55 275 194 258 278 258 59 239 320 36 333 256 274 282 273 311 309 318 319 309 316 310 330 324 52 124 160 151 177 154 167 171 168 184 164 171 161 181 178 175 182 163 170 147 322 185 168 171 164 176 172 166 198 221 198 202 211 218 208 211 205 216 218 194 203 196 195 176 220 112 181 170 78 172 154 169 165 173 165 155 147 147 142 143 145 146
33 29 83 130 231 299 298 26 6 13 3 15 313 296 247 270 288 299 302 328 316 332 329 312 261 356 356 38 159 139 244 156 204 155 166 180 159 139 162 183 179 181 186 162 168 159 176 185 172 167 171 169 162 182 200 210 214 210 206 209 216 213 207 217 233 233 220 207 204 213 215 165 136 174 168 176 163 165 166 173 167 154 152 148 143 145 145 146
221 220 351 96 223 312 330 18 321 333 351 334 323 294 295 251 252 270 297 303 311 296 298 295 303 327 338 319 169 194 227 265 156 187 67 163 109 174 165 185 185 180 199 165 185 160 211 174 190 176 174 175 182 187 191 192 200 202 212 206 213 215 201 194 206 185 217 213 209 214 212 92 118 161 177 182 171 165 165 157 145 152 151 147 147 148 148 150
342 2 96 196 235 252 258 264 280 302 307 328 305 301 285 299 12 266 278 284 283 286 285 297 295 222 168 177 152 99 159 167 204 146 173 147 117 169 172 179 185 180 189 174 192 174 207 178 205 195 196 198 195 188 182 189 188 208 205 212 205 210 210 210 212 225 217 203 215 209 222 135 148 166 173 180 179 166 161 158 153 150 150 147 147 148 150 152
298 352 350 1 248 234 274 268 274 258 289 349 308 344 319 335 331 327 119 298 18 319 313 261 306 270 142 156 157 144 149 159 119 135 177 145 101 127 172 175 183 184 164 175 192 183 201 185 199 226 207 201 190 189 160 196 197 203 207 210 213 207 213 210 211 219 210 224 226 204 204 169 168 174 174 177 183 168 169 161 156 151 151 149 149 148 149 153
333 55 273 25 313 329 288 174 257 268 267 282 289 300 305 323 335 344 345 262 323 306 299 123 172 167 58 56 159 147 168 153 128 128 146 137 132 134 147 178 182 179 165 188 188 197 191 190 190 198 199 217 207 181 182 196 204 196 205 206 209 209 208 214 218 222 218 223 229 187 188 197 183 183 175 182 181 182 171 161 150 149 145 143 145 149 153 156
341 310 262 317 287 306 297 304 292 271 284 270 289 286 301 316 340 12 340 321 315 339 305 19 45 74 86 98 294 139 132 161 112 84 114 154 139 146 154 164 191 176 185 188 188 200 206 197 172 198 187 176 177 176 184 202 203 203 204 208 209 210 213 214 215 216 222 227 237 212 199 217 208 197 190 180 168 164 155 153 144 145 150 148 147 150 151 155
9 335 342 290 257 275 279 273 260 263 264 237 254 289 307 318 337 359 232 237 330 344 107 243 37 51 77 110 343 101 58 35 49 90 42 73 128 178 148 174 164 191 188 187 186 185 231 163 171 181 187 170 149 180 197 210 205 215 213 213 213 217 219 215 214 214 215 225 226 223 208 210 114 193 181 145 152 144 148 158 157 153 150 149 147 151 155 159
316 287 291 303 305 279 229 226 245 246 269 241 239 299 296 337 11 341 338 213 259 304 303 352 8 26 68 117 121 66 37 360 359 20 7 0 107 46 226 144 179 172 190 176 185 164 223 147 175 183 195 168 174 189 181 202 212 219 216 217 217 214 216 212 215 211 213 212 215 218 217 211 149 158 134 142 148 152 163 164 160 161 159 156 156 158 160 161
323 289 286 290 280 308 307 266 245 255 247 257 275 323 313 325 323 347 338 31 324 262 273 338 15 321 108 124 89 46 12 344 345 340 348 343 353 335 23 102 233 183 181 179 177 186 200 182 179 182 201 181 171 193 187 192 208 222 223 214 220 226 230 224 221 218 220 216 217 211 214 189 144 154 152 156 168 171 173 172 168 168 169 165 162 162 161 157